GFSCGP_700_temp_000.txt.gz
Temp
7 6 7 8 7 6 6 6 6 6 8 7 7 7 7 8 9 11 11 11 11 11 11 11 11 11 10 10 10 10 10 9 8 8 8 8 8 8 8 7 6 5 5 5
6 5 7 6 6 5 5 5 5 6 7 6 6 5 7 8 9 10 10 11 10 10 11 10 10 10 10 10 11 10 10 9 9 9 8 8 7 7 7 6 6 5 5 5
6 6 6 5 4 5 5 5 6 5 5 5 5 6 7 7 9 10 10 11 10 9 9 10 10 10 10 9 9 10 10 10 10 9 8 8 8 8 8 8 8 7 5 4
5 7 6 5 5 6 4 6 5 4 4 2 3 2 4 7 8 9 9 10 8 9 9 9 10 10 10 10 10 9 9 10 10 10 9 9 8 8 7 7 6 5 5 5
6 5 5 5 5 4 5 4 4 4 4 3 1 2 6 6 7 8 9 9 9 8 7 8 9 9 10 10 9 9 9 9 9 9 9 9 9 8 8 6 6 5 5 5
6 5 4 4 4 4 4 3 3 3 3 -0 3 3 7 7 7 8 8 7 7 7 7 7 8 9 9 9 9 8 8 8 8 8 8 8 8 8 7 7 6 6 5 5
5 4 4 4 4 5 4 2 1 -2 -4 -1 4 3 5 6 6 6 6 6 6 6 6 7 7 8 8 8 8 8 8 8 8 7 7 7 7 7 7 7 7 6 6 6
2 3 3 4 4 4 4 4 1 -2 -3 2 3 3 5 5 5 6 6 5 6 6 6 6 6 7 6 7 7 7 7 7 7 7 7 6 6 6 7 7 7 7 6 5
2 2 3 2 2 2 3 2 3 2 3 -0 2 3 3 6 6 6 6 5 5 5 6 5 5 5 4 5 6 6 6 6 6 6 6 6 6 6 6 6 6 6 5 5
1 1 2 1 2 1 2 2 1 0 -2 -2 1 2 3 5 7 6 4 4 4 5 5 5 4 5 3 4 3 4 3 4 4 4 5 5 5 5 5 5 5 5 5 4
-0 -1 -0 -1 0 1 1 0 0 0 0 -0 -0 2 3 3 4 3 2 1 3 3 4 5 4 4 3 4 4 3 4 4 4 4 4 4 3 3 4 4 4 4 4 4
-3 -2 -3 -0 0 -1 -0 -1 -1 -2 -0 -0 -1 -1 1 1 2 2 1 0 0 0 2 2 2 1 1 2 3 3 3 3 3 3 3 4 4 3 3 3 3 3 4 3
-3 -3 -3 -2 -1 -1 -2 -3 -3 -3 -3 -3 -3 -2 -0 -1 -1 -0 -0 -1 -1 -1 -1 -1 -0 -0 0 1 2 2 2 3 3 2 2 1 2 2 3 2 3 3 3 3
-4 -4 -4 -4 -3 -3 -3 -2 -3 -4 -4 -4 -4 -4 -3 -3 -3 -2 -2 -2 -3 -3 -2 -2 -2 -1 -1 -1 -0 1 -0 0 2 2 1 2 1 1 2 2 2 3 2 2
-4 -5 -5 -5 -5 -4 -5 -5 -4 -5 -6 -6 -5 -6 -5 -4 -3 -3 -2 -2 -2 -4 -5 -4 -4 -4 -3 -2 -2 -1 -1 -2 -1 0 1 1 1 1 0 1 2 2 1 1
-6 -6 -6 -6 -5 -6 -8 -6 -5 -6 -5 -7 -6 -6 -6 -6 -6 -6 -8 -7 -6 -6 -6 -7 -6 -6 -5 -4 -3 -3 -2 -3 -2 -2 -2 -2 -0 1 1 1 1 1 0 0
-8 -8 -8 -8 -8 -8 -9 -6 -7 -6 -6 -6 -7 -6 -7 -9 -9 -9 -9 -8 -8 -9 -9 -8 -7 -7 -8 -7 -6 -6 -5 -4 -4 -4 -3 -3 -2 -1 -0 1 1 1 1 -0
-9 -9 -9 -9 -10 -10 -7 -6 -7 -7 -8 -8 -8 -8 -9 -10 -11 -11 -10 -10 -11 -11 -11 -10 -11 -10 -10 -10 -9 -9 -8 -8 -7 -6 -6 -4 -3 -3 -1 -0 -0 0 0 -0
-9 -9 -10 -10 -10 -9 -8 -7 -8 -8 -10 -10 -10 -11 -12 -11 -11 -11 -11 -11 -11 -11 -11 -11 -11 -10 -10 -9 -9 -8 -8 -8 -8 -8 -7 -6 -5 -4 -3 -2 -1 -1 -2 -1
-9 -9 -12 -11 -12 -15 -8 -8 -10 -10 -11 -11 -13 -12 -12 -13 -13 -11 -12 -12 -12 -12 -12 -12 -12 -12 -12 -12 -10 -10 -10 -10 -9 -9 -9 -9 -8 -8 -6 -3 -3 -3 -3 -2
-10 -10 -11 -11 -13 -11 -10 -10 -10 -12 -12 -13 -13 -13 -14 -14 -14 -13 -13 -13 -13 -13 -13 -13 -13 -13 -13 -13 -13 -12 -11 -11 -10 -10 -9 -9 -9 -9 -8 -7 -6 -5 -4 -3
-12 -12 -12 -13 -13 -15 -11 -12 -12 -13 -12 -13 -13 -14 -14 -15 -15 -14 -14 -14 -14 -14 -14 -15 -15 -15 -15 -16 -15 -15 -14 -14 -13 -13 -11 -9 -10 -9 -9 -8 -8 -8 -8 -6
-14 -13 -13 -13 -13 -13 -13 -13 -13 -13 -13 -13 -14 -14 -15 -15 -15 -15 -15 -15 -15 -15 -15 -16 -16 -16 -16 -15 -16 -16 -15 -15 -15 -15 -13 -12 -11 -10 -10 -11 -10 -9 -9 -9
-15 -15 -15 -14 -14 -13 -14 -13 -14 -14 -14 -14 -14 -15 -15 -16 -15 -16 -16 -16 -16 -16 -16 -16 -16 -16 -16 -16 -16 -16 -16 -16 -16 -16 -15 -15 -14 -13 -11 -11 -11 -10 -9 -9
-15 -15 -15 -15 -14 -14 -14 -14 -14 -15 -15 -15 -15 -15 -16 -16 -16 -16 -16 -16 -16 -16 -16 -17 -17 -17 -17 -17 -17 -17 -17 -17 -17 -16 -16 -15 -15 -14 -14 -13 -12 -11 -10 -10
-15 -14 -15 -14 -14 -14 -14 -14 -15 -15 -15 -15 -15 -16 -16 -16 -17 -17 -17 -17 -17 -17 -17 -17 -17 -17 -17 -17 -17 -17 -17 -16 -16 -16 -16 -16 -15 -15 -15 -14 -13 -13 -12 -10

GFSCGP_700_temp_003.txt.gz
Temp
6 5 6 7 6 6 5 5 5 7 7 5 7 6 7 8 8 10 10 10 10 10 10 10 10 10 9 10 10 10 10 10 10 9 9 9 8 8 8 7 7 7 6 6
5 5 7 6 6 5 5 4 5 5 6 4 5 5 7 8 9 9 10 11 9 8 9 9 9 10 9 9 10 10 10 10 10 10 9 9 9 8 8 7 8 7 7 6
5 6 6 5 5 5 5 4 5 4 5 4 4 5 6 7 8 9 9 8 7 8 9 9 8 9 10 10 9 9 10 10 10 10 10 10 9 9 8 9 8 8 7 6
5 7 6 6 5 5 4 5 5 4 4 3 3 1 4 6 7 8 7 7 7 7 7 8 8 9 9 9 9 9 9 9 9 9 9 10 10 9 8 8 6 6 6 6
6 6 6 5 6 5 5 4 4 4 3 2 1 2 5 6 7 7 7 7 7 7 7 8 7 7 7 7 8 8 8 8 8 9 9 9 9 9 9 8 7 6 5 5
6 6 5 5 4 4 4 3 2 2 2 -1 3 3 5 7 7 7 7 7 7 6 5 5 6 6 6 7 8 8 8 8 8 8 7 7 7 7 8 8 7 7 6 5
4 4 4 4 4 4 4 3 1 -2 -3 -1 3 2 4 5 6 5 5 5 4 4 4 5 5 6 6 6 7 6 7 7 7 7 6 6 6 6 6 6 6 6 6 5
3 2 3 4 3 3 3 3 2 -1 -2 2 3 2 4 4 3 4 3 4 4 4 4 5 5 5 5 6 7 6 6 6 6 6 5 5 5 5 5 5 4 4 5 4
2 2 2 1 2 2 2 1 3 2 2 -0 2 2 3 4 3 3 3 3 3 4 4 4 4 4 4 3 4 4 4 4 4 4 4 4 4 4 4 4 4 3 3 3
-1 -2 1 0 0 1 1 1 1 -0 -3 -1 1 2 2 3 3 2 2 1 1 2 2 3 3 3 3 2 1 2 3 3 3 3 3 3 2 3 3 3 3 3 2 2
-1 -1 -0 -1 -1 -1 -0 -0 -0 -0 -0 -1 -1 0 1 1 2 2 1 -0 -0 -0 -0 -0 0 1 2 1 1 1 1 2 2 3 2 3 3 3 2 3 4 4 3 3
-2 -3 -3 -1 -0 -2 -2 -2 -1 -3 -2 -1 -1 -3 -2 -1 -0 -1 -0 -0 -1 -1 -2 -2 -2 -1 -0 1 1 1 0 0 0 1 1 1 1 1 2 2 2 3 4 4
-3 -3 -3 -3 -2 -2 -2 -2 -2 -3 -3 -4 -4 -3 -2 -2 -2 -2 -2 -2 -2 -2 -2 -2 -2 -2 -1 -1 -1 -1 -0 -1 -1 -0 -1 -0 -0 -0 0 0 0 1 2 2
-4 -3 -4 -4 -3 -2 -4 -4 -4 -4 -4 -4 -4 -4 -4 -4 -3 -3 -3 -2 -2 -2 -2 -3 -4 -3 -3 -4 -4 -4 -2 -2 -3 -2 -2 -1 -1 -1 -0 -1 -0 -0 0 1
-5 -5 -5 -5 -5 -5 -5 -5 -5 -5 -5 -7 -6 -6 -4 -5 -4 -4 -4 -4 -3 -3 -3 -3 -4 -6 -7 -7 -7 -7 -6 -5 -4 -4 -3 -3 -3 -2 -2 -2 -1 -1 -0 0
-7 -7 -6 -6 -6 -6 -7 -6 -6 -6 -6 -7 -7 -6 -6 -6 -6 -6 -7 -6 -6 -5 -5 -6 -7 -7 -7 -7 -8 -8 -7 -8 -7 -5 -5 -5 -4 -4 -3 -2 -2 -2 -1 -1
-8 -7 -8 -8 -7 -8 -9 -6 -6 -7 -6 -7 -8 -7 -8 -8 -8 -9 -9 -9 -9 -9 -9 -9 -9 -9 -8 -8 -8 -9 -9 -9 -9 -9 -8 -7 -7 -5 -6 -5 -4 -4 -3 -2
-9 -9 -9 -9 -10 -10 -8 -7 -7 -7 -8 -8 -9 -9 -10 -10 -10 -10 -10 -11 -11 -11 -11 -10 -10 -10 -10 -11 -11 -11 -11 -11 -10 -9 -9 -9 -8 -8 -7 -7 -7 -6 -6 -5
-8 -8 -10 -11 -10 -9 -9 -9 -8 -9 -9 -9 -10 -11 -12 -12 -12 -11 -12 -12 -12 -12 -12 -12 -12 -12 -12 -12 -13 -13 -13 -13 -13 -13 -12 -11 -10 -9 -8 -8 -8 -8 -7 -7
-9 -9 -12 -12 -13 -17 -9 -9 -10 -10 -11 -11 -13 -13 -13 -13 -13 -12 -13 -13 -13 -13 -13 -13 -13 -13 -13 -13 -14 -14 -14 -14 -14 -14 -14 -14 -13 -12 -11 -9 -9 -9 -8 -8
-11 -11 -12 -12 -12 -11 -10 -10 -11 -12 -12 -13 -13 -13 -13 -14 -14 -13 -13 -14 -14 -14 -14 -14 -14 -14 -14 -14 -15 -14 -15 -15 -15 -15 -15 -15 -15 -15 -14 -13 -11 -10 -9 -7
-12 -12 -12 -13 -13 -14 -11 -12 -13 -13 -13 -13 -13 -14 -14 -14 -14 -14 -14 -14 -15 -15 -14 -15 -15 -15 -15 -15 -16 -16 -15 -16 -16 -16 -15 -15 -15 -15 -15 -15 -14 -13 -11 -9
-14 -14 -13 -13 -13 -12 -13 -13 -13 -13 -13 -14 -14 -14 -15 -15 -15 -15 -15 -15 -15 -15 -15 -16 -16 -16 -16 -16 -16 -16 -16 -16 -16 -16 -16 -16 -16 -16 -16 -15 -15 -14 -13 -12
-15 -14 -15 -15 -14 -14 -14 -13 -14 -14 -14 -14 -15 -15 -15 -15 -15 -15 -15 -16 -16 -16 -16 -17 -17 -16 -16 -16 -17 -17 -17 -17 -17 -17 -17 -16 -16 -16 -16 -16 -16 -15 -15 -13
-14 -15 -15 -15 -15 -14 -14 -14 -14 -14 -15 -15 -15 -15 -15 -16 -16 -16 -16 -16 -16 -16 -17 -17 -17 -17 -17 -17 -17 -17 -17 -17 -17 -17 -16 -16 -16 -16 -16 -16 -16 -16 -15 -15
-13 -14 -15 -15 -14 -15 -14 -14 -15 -15 -15 -15 -15 -15 -16 -16 -16 -16 -16 -17 -17 -17 -17 -17 -17 -17 -17 -17 -17 -17 -17 -17 -17 -16 -16 -16 -16 -15 -15 -15 -15 -15 -16 -16

GFSCGP_700_temp_009.txt.gz
Temp
6 5 5 6 6 5 5 5 5 6 5 5 6 4 6 7 8 8 7 7 7 8 8 7 7 7 7 8 8 9 9 9 9 9 9 8 8 8 8 8 8 8 7 7
5 4 5 5 6 5 5 4 5 5 5 4 5 5 6 6 7 8 7 6 7 7 6 6 6 7 7 7 8 8 8 8 8 9 9 9 8 8 8 8 7 7 7 7
4 4 4 5 5 4 4 4 4 4 4 5 3 4 6 6 6 6 6 7 6 5 5 5 6 7 7 7 7 7 7 7 8 8 8 8 9 8 7 7 7 7 7 7
3 5 5 5 6 5 4 4 5 4 3 5 4 5 5 7 6 4 5 5 5 5 6 6 6 6 6 6 5 6 6 6 7 7 7 7 7 8 8 8 7 7 6 6
4 5 4 4 4 4 4 4 4 4 3 2 4 4 6 6 6 4 5 5 5 5 6 6 6 5 5 5 4 5 5 5 6 6 7 6 6 7 7 7 7 7 6 6
5 4 4 4 4 4 4 4 3 3 3 4 5 6 6 7 5 5 5 5 5 5 6 5 4 4 4 3 3 3 3 3 4 5 5 5 5 5 5 5 5 5 6 6
4 4 4 3 3 3 3 3 4 4 4 4 6 4 5 5 5 5 5 5 5 5 5 4 4 3 3 3 2 3 3 3 3 3 3 2 2 2 2 3 3 3 4 4
3 4 4 3 2 2 2 2 3 3 4 6 4 4 5 4 4 4 4 4 4 4 4 3 3 2 2 2 3 3 2 2 1 1 2 2 2 2 2 2 2 2 2 2
2 3 2 1 1 1 1 1 1 -0 0 0 2 3 4 4 4 4 3 2 2 2 2 2 1 1 1 1 1 2 1 0 0 -0 -0 0 1 1 1 1 1 1 1 1
0 -0 1 0 -0 0 0 0 -1 -2 -2 -1 3 3 4 4 2 2 2 1 1 0 -0 -0 -1 -0 -0 -0 -1 -0 -0 -1 -1 -1 -1 -1 -1 -0 -0 -0 -0 -0 -1 0
-2 -2 -0 -1 -1 -0 -0 -1 -1 -1 -1 0 0 2 2 2 2 1 0 -0 -1 -1 -1 -1 -2 -2 -3 -3 -2 -2 -1 -1 -1 -1 -1 -1 -1 -1 -1 -1 -2 -2 -2 -1
-3 -3 -3 -2 -1 -1 -1 -1 -1 -1 -2 -1 -1 -2 0 0 0 -0 -1 -2 -2 -2 -2 -3 -3 -3 -4 -4 -3 -3 -2 -2 -2 -2 -2 -2 -2 -2 -2 -2 -3 -3 -3 -3
-3 -4 -4 -2 -1 -1 -2 -2 -3 -3 -2 -2 -2 -2 -1 -1 -1 -2 -2 -2 -3 -3 -3 -3 -3 -4 -5 -5 -5 -6 -5 -4 -4 -4 -4 -4 -3 -3 -3 -4 -4 -5 -5 -4
-5 -5 -5 -4 -3 -3 -4 -4 -4 -4 -4 -3 -3 -3 -2 -3 -4 -5 -4 -4 -5 -5 -5 -5 -6 -7 -8 -7 -8 -8 -8 -7 -7 -7 -6 -6 -6 -6 -6 -5 -5 -6 -6 -5
-6 -6 -6 -6 -5 -5 -6 -6 -6 -6 -5 -5 -5 -5 -5 -5 -5 -6 -6 -5 -5 -6 -6 -6 -7 -7 -8 -9 -9 -9 -10 -10 -10 -9 -9 -8 -8 -7 -7 -7 -7 -7 -7 -7
-8 -8 -8 -7 -7 -7 -7 -6 -6 -7 -6 -6 -6 -6 -6 -6 -6 -6 -7 -7 -7 -8 -8 -9 -9 -9 -10 -10 -10 -11 -11 -11 -11 -11 -11 -11 -12 -11 -11 -9 -8 -8 -8 -7
-9 -9 -9 -9 -8 -8 -8 -7 -7 -7 -7 -7 -7 -7 -7 -7 -8 -8 -8 -9 -9 -10 -10 -11 -11 -11 -11 -11 -11 -11 -12 -12 -12 -13 -13 -13 -13 -13 -13 -13 -13 -12 -10 -9
-8 -9 -10 -10 -10 -9 -7 -7 -7 -7 -7 -8 -8 -8 -8 -9 -9 -10 -10 -11 -11 -12 -12 -12 -12 -12 -12 -12 -12 -12 -12 -13 -13 -13 -13 -14 -14 -14 -14 -14 -14 -14 -15 -14
-8 -11 -11 -10 -9 -9 -9 -8 -8 -9 -9 -9 -10 -10 -11 -11 -11 -10 -12 -13 -12 -12 -12 -13 -12 -12 -12 -13 -13 -13 -13 -14 -14 -14 -14 -14 -15 -15 -15 -15 -15 -15 -15 -15
-9 -10 -11 -11 -11 -10 -9 -10 -10 -10 -11 -10 -10 -11 -12 -13 -13 -13 -13 -13 -13 -13 -13 -13 -13 -13 -13 -14 -14 -14 -14 -14 -14 -15 -15 -15 -15 -16 -16 -16 -15 -15 -15 -15
-11 -11 -12 -12 -11 -11 -10 -11 -11 -12 -11 -11 -12 -13 -13 -13 -13 -13 -13 -14 -14 -14 -14 -14 -14 -14 -14 -14 -14 -15 -15 -15 -15 -16 -16 -16 -16 -16 -16 -16 -16 -16 -16 -16
-11 -11 -12 -13 -13 -12 -11 -12 -12 -12 -12 -12 -12 -13 -14 -14 -14 -14 -14 -14 -15 -15 -15 -15 -14 -14 -15 -15 -15 -16 -16 -16 -16 -16 -16 -16 -17 -17 -17 -17 -17 -17 -17 -16
-13 -12 -12 -12 -12 -12 -12 -12 -12 -13 -13 -13 -14 -14 -14 -14 -14 -15 -15 -15 -15 -15 -15 -15 -15 -15 -16 -16 -16 -16 -17 -17 -16 -16 -17 -17 -17 -17 -17 -17 -17 -17 -17 -17
-13 -13 -14 -14 -13 -12 -13 -13 -13 -14 -14 -14 -14 -15 -15 -15 -15 -15 -15 -15 -15 -16 -16 -16 -16 -16 -16 -17 -17 -17 -17 -17 -17 -17 -17 -17 -17 -17 -18 -18 -19 -19 -19 -19
-12 -14 -14 -15 -13 -13 -13 -14 -14 -14 -14 -14 -14 -15 -15 -15 -16 -16 -16 -16 -16 -16 -16 -16 -16 -16 -16 -17 -17 -17 -17 -17 -17 -17 -17 -17 -17 -18 -18 -19 -20 -20 -21 -21
-12 -12 -14 -14 -13 -14 -14 -14 -14 -15 -15 -15 -15 -15 -16 -16 -16 -16 -16 -16 -16 -16 -16 -16 -16 -17 -17 -17 -17 -18 -17 -18 -18 -18 -18 -18 -18 -18 -18 -19 -19 -21 -22 -23

GFSCGP_700_temp_015.txt.gz
Temp
5 5 6 6 6 5 5 5 4 5 6 5 6 6 6 6 7 6 6 6 6 6 6 5 5 5 6 6 6 7 7 7 7 7 7 7 7 7 7 7 7 7 6 6
4 5 5 5 5 4 4 4 5 5 5 5 5 5 6 7 6 6 7 7 6 5 5 5 5 5 5 6 6 6 6 6 7 7 7 7 7 7 6 6 6 6 6 6
4 4 4 4 4 5 5 4 4 4 5 5 4 4 5 7 6 5 6 6 6 6 5 5 4 4 5 5 5 5 5 5 5 5 5 6 6 6 6 6 5 5 5 5
3 3 3 4 4 3 3 4 4 4 4 4 3 3 4 6 6 6 5 5 5 5 5 4 4 4 4 4 4 4 4 4 4 4 4 4 4 4 4 4 4 4 4 4
3 2 3 4 4 4 4 4 4 3 3 3 3 2 5 5 5 6 5 5 6 5 4 4 4 4 3 3 3 3 3 3 3 3 3 2 2 2 2 2 2 2 2 2
2 2 2 3 3 3 3 3 3 3 2 -1 4 3 4 5 6 6 6 5 5 4 4 3 3 3 2 2 2 2 2 1 1 1 1 1 1 1 1 1 1 1 1 1
2 3 3 3 3 3 3 2 2 -1 -3 -1 3 3 4 4 4 4 4 4 5 4 4 3 3 2 1 1 0 0 1 1 1 -0 -1 -1 -0 -0 -0 -0 -0 1 1 1
2 2 3 3 3 2 2 2 3 -0 -2 -1 3 2 4 3 3 3 4 3 3 3 3 2 1 1 0 -0 -1 -1 -1 0 -1 -1 -1 -0 -1 -1 -2 -2 -1 -1 -1 -0
2 2 2 2 2 1 1 1 1 1 1 -1 1 2 2 2 2 2 1 1 1 1 1 -0 -0 -0 -0 -0 -0 -1 -1 -1 -2 -2 -2 -2 -2 -1 -2 -2 -2 -2 -2 -1
1 1 1 1 1 0 0 1 0 -0 -4 -5 -1 1 1 1 1 1 -0 -1 -1 -1 -1 -1 -1 -1 -2 -2 -2 -2 -3 -3 -3 -3 -3 -3 -3 -3 -3 -3 -3 -3 -3 -3
-0 -0 0 0 -0 -0 -0 -0 -1 -1 -1 -5 -5 -0 -0 -0 -0 -1 -1 -1 -1 -2 -3 -3 -4 -4 -4 -5 -5 -5 -5 -4 -5 -5 -5 -5 -5 -5 -4 -5 -5 -5 -4 -4
-1 -1 -1 -0 -1 -1 -1 -1 -2 -2 -2 -2 -1 -2 -1 -1 -2 -2 -3 -3 -3 -4 -5 -5 -5 -5 -5 -5 -6 -6 -6 -6 -7 -7 -7 -7 -7 -7 -7 -6 -7 -7 -7 -7
-2 -3 -3 -2 -2 -2 -2 -2 -3 -4 -4 -3 -4 -2 -2 -2 -3 -4 -4 -4 -4 -4 -4 -5 -6 -6 -6 -7 -8 -8 -8 -9 -9 -9 -9 -9 -9 -9 -9 -9 -9 -9 -9 -9
-3 -3 -3 -3 -2 -3 -3 -3 -3 -4 -5 -5 -5 -4 -2 -2 -3 -4 -5 -5 -5 -6 -6 -7 -7 -7 -8 -8 -8 -9 -10 -11 -11 -11 -11 -11 -11 -11 -11 -10 -10 -10 -10 -9
-4 -4 -4 -4 -4 -4 -5 -4 -4 -5 -5 -7 -4 -5 -3 -4 -5 -5 -6 -6 -7 -7 -7 -7 -8 -8 -9 -10 -11 -12 -12 -12 -12 -12 -12 -12 -12 -12 -12 -12 -12 -12 -12 -12
-5 -5 -6 -6 -5 -5 -6 -5 -6 -6 -6 -6 -6 -6 -5 -6 -7 -7 -7 -7 -7 -8 -8 -8 -9 -9 -10 -11 -12 -12 -12 -12 -12 -13 -13 -13 -13 -13 -13 -13 -13 -13 -13 -13
-6 -7 -7 -7 -7 -8 -9 -4 -4 -5 -5 -6 -7 -7 -8 -8 -8 -8 -8 -8 -8 -9 -9 -10 -10 -11 -12 -12 -12 -12 -13 -13 -13 -13 -14 -14 -14 -14 -14 -14 -14 -14 -14 -14
-6 -7 -8 -8 -9 -14 -6 -6 -7 -7 -7 -8 -8 -8 -8 -8 -8 -8 -9 -9 -10 -10 -11 -12 -12 -12 -13 -13 -13 -14 -14 -14 -14 -14 -14 -14 -15 -15 -15 -15 -15 -15 -15 -14
-7 -8 -10 -10 -10 -9 -6 -7 -7 -8 -7 -7 -8 -9 -9 -10 -10 -10 -10 -11 -11 -12 -12 -13 -13 -13 -13 -13 -14 -14 -14 -14 -15 -15 -15 -15 -15 -15 -15 -15 -15 -15 -15 -15
-6 -8 -11 -11 -12 -15 -8 -8 -9 -10 -10 -9 -10 -11 -11 -11 -11 -11 -12 -12 -12 -12 -12 -12 -13 -13 -14 -14 -15 -14 -15 -15 -15 -15 -15 -15 -15 -16 -15 -15 -16 -16 -16 -16
-9 -10 -11 -12 -11 -11 -10 -10 -10 -11 -10 -11 -11 -11 -12 -12 -13 -13 -13 -13 -13 -13 -13 -13 -14 -15 -15 -15 -15 -15 -15 -15 -15 -15 -16 -16 -16 -16 -16 -16 -16 -16 -16 -16
-9 -9 -11 -12 -12 -13 -11 -11 -11 -11 -12 -12 -12 -13 -13 -13 -13 -13 -13 -13 -14 -14 -14 -15 -15 -15 -15 -16 -15 -16 -16 -16 -16 -16 -16 -16 -16 -16 -17 -17 -17 -17 -17 -16
-10 -9 -9 -10 -10 -10 -11 -11 -12 -12 -12 -12 -13 -13 -13 -14 -14 -14 -14 -14 -14 -15 -15 -15 -16 -16 -16 -16 -16 -16 -16 -16 -16 -16 -16 -16 -16 -17 -17 -17 -17 -17 -17 -17
-11 -11 -11 -11 -11 -11 -12 -12 -12 -12 -13 -13 -13 -13 -14 -15 -15 -14 -14 -14 -14 -15 -16 -16 -16 -16 -16 -16 -16 -16 -16 -16 -16 -16 -16 -17 -17 -17 -17 -17 -17 -17 -17 -18
-11 -12 -12 -13 -12 -12 -12 -12 -12 -13 -13 -14 -14 -14 -14 -15 -15 -15 -15 -15 -15 -15 -16 -16 -16 -16 -16 -16 -17 -17 -17 -17 -16 -16 -17 -17 -17 -17 -17 -17 -17 -17 -18 -18
-10 -11 -12 -12 -12 -13 -13 -12 -13 -13 -14 -14 -14 -15 -15 -15 -15 -15 -15 -15 -16 -16 -16 -16 -16 -17 -17 -17 -17 -17 -17 -17 -17 -17 -17 -17 -18 -18 -18 -17 -17 -17 -18 -19

GFSCGP_700_temp_021.txt.gz
Temp
6 5 6 7 5 5 5 5 5 6 6 5 5 5 5 6 6 6 7 7 7 7 6 6 6 5 5 4 5 5 6 6 6 6 6 5 5 5 5 5 5 5 5 4
5 5 6 5 5 5 5 4 5 5 6 4 4 4 5 5 5 6 6 7 7 7 6 5 5 4 5 4 4 5 5 5 5 5 5 5 5 5 5 4 4 4 4 4
4 4 4 4 4 4 4 4 4 4 4 4 3 4 5 5 6 6 6 7 6 5 5 4 4 4 4 4 4 4 4 4 3 3 3 3 3 3 3 3 3 3 2 2
2 4 4 4 4 3 3 4 3 3 3 2 3 2 4 5 6 6 7 6 5 5 5 5 4 3 3 3 3 3 3 3 2 2 2 2 2 1 1 1 1 1 1 1
3 3 3 3 4 3 3 3 3 3 3 2 3 2 3 5 6 6 6 5 5 5 4 4 3 2 2 2 2 2 2 2 2 1 1 0 0 -0 -0 -0 -0 -0 -0 -0
3 2 3 2 3 3 3 3 3 3 2 -1 3 3 2 5 5 5 4 5 5 5 4 4 2 2 1 1 1 1 0 0 0 -0 -1 -1 -1 -1 -1 -1 -2 -2 -2 -2
3 3 3 2 2 2 3 3 2 -1 -2 -2 3 2 4 4 4 4 4 4 4 3 3 2 1 1 0 -0 -0 -1 -1 -1 -1 -1 -2 -2 -2 -2 -2 -3 -3 -3 -3 -3
3 2 3 3 3 4 3 3 2 -2 -3 -2 1 1 4 3 3 3 3 3 3 2 1 0 -0 -1 -1 -1 -1 -2 -2 -2 -2 -2 -2 -2 -2 -3 -3 -4 -4 -5 -4 -5
2 2 3 3 3 3 2 2 2 2 1 -2 2 2 2 2 3 2 2 2 1 0 -1 -1 -2 -2 -2 -2 -2 -2 -2 -2 -2 -2 -3 -3 -3 -4 -4 -4 -4 -4 -4 -4
2 1 2 2 2 2 2 2 1 0 -4 -6 -1 -0 2 2 2 2 1 0 -0 -1 -2 -2 -3 -3 -3 -4 -4 -4 -4 -4 -4 -4 -4 -4 -4 -5 -5 -5 -6 -6 -6 -6
1 1 1 1 1 2 1 1 1 1 1 -4 -6 0 1 1 1 0 -0 -1 -2 -2 -2 -3 -3 -3 -3 -3 -4 -4 -5 -5 -4 -4 -5 -6 -6 -7 -7 -7 -7 -8 -8 -8
1 1 -0 0 0 1 1 1 1 -0 -1 -1 -1 -1 -1 -1 -1 -0 -1 -2 -3 -3 -3 -3 -3 -3 -4 -4 -5 -6 -6 -7 -7 -8 -8 -8 -8 -8 -8 -9 -9 -9 -9 -10
0 -0 -1 -1 -1 -1 -1 -0 -0 -1 -1 -1 -3 -2 -1 -2 -2 -2 -2 -3 -3 -4 -4 -4 -4 -4 -5 -6 -7 -8 -8 -8 -9 -9 -9 -10 -10 -10 -10 -10 -11 -11 -11 -11
-1 -1 -1 -1 -1 -1 -1 -1 -1 -2 -3 -3 -3 -2 -3 -3 -3 -3 -3 -4 -4 -4 -5 -5 -5 -6 -7 -7 -8 -9 -9 -9 -10 -11 -11 -11 -11 -12 -12 -12 -12 -12 -12 -12
-2 -2 -2 -2 -2 -2 -2 -2 -2 -2 -3 -4 -3 -4 -3 -3 -3 -4 -4 -4 -5 -5 -5 -6 -6 -7 -8 -8 -9 -9 -10 -11 -11 -12 -12 -12 -12 -13 -13 -13 -13 -13 -13 -13
-3 -3 -3 -3 -3 -3 -3 -3 -4 -4 -5 -5 -5 -4 -3 -3 -3 -4 -4 -5 -5 -6 -6 -7 -8 -8 -9 -9 -10 -11 -11 -12 -12 -13 -13 -13 -13 -13 -13 -14 -14 -14 -14 -14
-4 -4 -4 -5 -5 -5 -6 -4 -4 -4 -4 -4 -5 -3 -4 -4 -4 -5 -5 -5 -6 -7 -7 -8 -9 -9 -10 -11 -11 -12 -12 -13 -13 -13 -13 -14 -14 -14 -14 -15 -15 -15 -15 -15
-5 -5 -5 -5 -7 -8 -4 -4 -4 -4 -4 -5 -5 -5 -5 -5 -5 -6 -6 -7 -8 -8 -8 -9 -10 -11 -12 -12 -13 -13 -13 -13 -14 -14 -14 -15 -15 -15 -15 -15 -15 -15 -15 -15
-6 -6 -6 -7 -8 -6 -5 -5 -5 -6 -5 -5 -6 -6 -7 -7 -7 -7 -8 -8 -9 -9 -10 -11 -12 -12 -13 -13 -13 -13 -14 -14 -15 -15 -15 -15 -16 -16 -16 -16 -16 -16 -16 -16
-6 -7 -7 -7 -10 -11 -5 -6 -6 -6 -8 -5 -6 -7 -8 -8 -9 -8 -9 -10 -10 -11 -12 -12 -13 -13 -13 -13 -13 -13 -14 -15 -15 -16 -16 -16 -16 -16 -16 -16 -16 -16 -16 -16
-7 -8 -8 -8 -9 -8 -7 -7 -7 -8 -7 -7 -7 -8 -9 -9 -9 -10 -10 -11 -11 -12 -13 -13 -13 -13 -13 -13 -14 -14 -14 -15 -16 -16 -16 -17 -17 -17 -17 -17 -17 -17 -16 -16
-7 -7 -8 -10 -11 -12 -7 -8 -8 -7 -8 -8 -9 -9 -9 -10 -10 -11 -12 -12 -12 -13 -13 -13 -13 -14 -14 -14 -14 -14 -15 -16 -16 -17 -17 -17 -17 -17 -17 -17 -17 -17 -17 -16
-8 -7 -7 -8 -7 -7 -8 -9 -9 -9 -9 -10 -10 -10 -11 -11 -12 -12 -12 -13 -13 -14 -14 -14 -14 -15 -15 -15 -15 -15 -16 -16 -17 -17 -17 -17 -17 -17 -17 -17 -17 -17 -17 -17
-8 -7 -8 -8 -8 -9 -9 -10 -10 -10 -11 -11 -11 -12 -12 -12 -13 -13 -13 -13 -14 -14 -14 -15 -15 -15 -15 -15 -15 -15 -16 -16 -17 -17 -17 -17 -17 -17 -18 -17 -17 -17 -17 -17
-8 -8 -8 -9 -9 -10 -10 -10 -11 -11 -11 -12 -12 -12 -13 -13 -13 -13 -14 -14 -14 -15 -15 -15 -15 -15 -15 -16 -16 -16 -16 -17 -17 -17 -17 -17 -17 -18 -18 -18 -18 -18 -18 -17
-8 -8 -9 -10 -9 -10 -11 -11 -11 -11 -11 -12 -12 -13 -13 -13 -14 -14 -14 -14 -15 -15 -15 -15 -15 -15 -16 -16 -16 -16 -17 -17 -17 -17 -18 -18 -18 -18 -18 -18 -18 -18 -18 -18

GFSCGP_700_temp_024.txt.gz
Temp
6 5 7 7 6 5 5 5 5 6 6 5 5 4 5 6 6 6 6 6 6 7 7 7 6 5 5 5 5 5 5 5 5 5 5 5 5 5 5 5 4 4 4 4
5 5 6 5 5 5 5 5 5 5 5 4 4 4 5 5 5 5 6 6 6 7 6 6 5 5 5 4 4 4 4 5 5 5 4 4 4 4 4 3 3 3 2 2
4 5 5 5 5 4 4 4 4 4 4 4 4 3 6 6 5 5 6 6 6 6 6 6 5 4 3 3 3 3 4 3 3 3 3 3 3 3 3 3 3 2 2 1
3 4 4 4 4 4 3 4 3 3 2 2 2 2 4 6 6 6 6 6 6 6 5 5 5 4 3 2 2 2 2 2 2 2 2 2 2 2 1 1 1 1 1 1
3 3 3 4 4 3 3 3 3 2 2 2 2 1 3 5 6 6 6 6 5 5 4 4 4 3 2 2 2 1 1 1 1 1 1 1 0 -0 -0 -0 -0 -0 -0 -0
2 2 3 3 3 3 2 2 2 2 2 -1 3 3 2 4 5 5 5 5 5 4 4 3 4 2 1 1 1 0 0 -0 -0 -0 -0 -1 -1 -1 -1 -1 -2 -2 -2 -2
2 3 3 2 2 2 2 2 1 -1 -2 -2 3 2 4 3 4 4 4 4 5 4 4 3 2 0 -0 -0 -0 -1 -1 -1 -1 -2 -2 -2 -2 -2 -2 -2 -3 -3 -3 -3
3 2 3 4 3 3 2 2 2 -2 -3 -2 1 1 3 4 4 4 4 4 4 4 3 2 0 -1 -1 -1 -2 -2 -2 -3 -3 -3 -3 -3 -3 -3 -3 -4 -4 -4 -4 -5
3 3 3 3 4 3 2 1 2 1 0 -2 2 2 2 2 3 3 3 3 3 2 1 -0 -2 -2 -2 -3 -3 -3 -3 -3 -3 -3 -3 -3 -4 -4 -4 -5 -5 -5 -6 -7
3 2 3 3 2 2 2 2 1 1 -3 -5 -0 0 2 2 2 2 2 2 2 1 -0 -1 -2 -3 -3 -3 -4 -4 -3 -3 -3 -3 -4 -4 -5 -5 -6 -6 -6 -7 -7 -8
2 2 1 1 1 2 1 0 1 1 1 -3 -5 1 1 1 1 1 1 1 0 -1 -1 -2 -3 -3 -3 -4 -3 -4 -4 -4 -5 -5 -5 -6 -6 -6 -7 -7 -8 -8 -8 -9
2 1 1 1 1 1 1 1 1 1 -1 -1 -1 0 0 0 -0 -1 -0 -1 -1 -2 -2 -3 -3 -3 -3 -3 -3 -4 -5 -5 -6 -6 -7 -8 -8 -8 -9 -9 -9 -10 -10 -10
2 0 -0 -1 -1 -0 -0 0 0 0 0 0 -1 -1 -0 -1 -1 -1 -1 -1 -2 -2 -3 -4 -4 -4 -4 -4 -5 -6 -7 -7 -8 -8 -9 -9 -9 -10 -10 -11 -11 -11 -12 -12
0 0 0 -0 1 0 -0 -1 -0 -0 -2 -1 -1 -1 -1 -2 -2 -2 -2 -2 -3 -4 -4 -4 -4 -5 -5 -6 -7 -8 -8 -9 -9 -10 -10 -10 -11 -11 -12 -12 -12 -12 -12 -12
-2 -2 -1 -1 -1 -1 -1 -1 -1 -2 -1 -2 -2 -2 -2 -2 -2 -2 -3 -4 -4 -4 -4 -5 -5 -6 -6 -7 -8 -9 -9 -10 -10 -10 -11 -11 -12 -12 -13 -13 -13 -13 -13 -13
-2 -2 -2 -2 -2 -2 -2 -2 -2 -3 -3 -3 -3 -3 -2 -2 -3 -4 -4 -4 -4 -4 -5 -6 -6 -7 -7 -8 -8 -9 -10 -11 -11 -11 -12 -12 -13 -13 -13 -13 -14 -14 -14 -14
-3 -3 -4 -4 -3 -3 -4 -3 -3 -3 -3 -3 -4 -3 -3 -4 -4 -4 -4 -4 -5 -6 -6 -6 -7 -7 -8 -8 -9 -10 -11 -12 -12 -13 -13 -13 -13 -14 -14 -14 -15 -15 -15 -15
-4 -4 -5 -4 -5 -7 -3 -2 -3 -3 -4 -4 -4 -4 -4 -5 -5 -4 -5 -5 -6 -6 -7 -7 -8 -8 -8 -9 -11 -12 -12 -13 -13 -13 -13 -14 -14 -15 -15 -15 -15 -15 -16 -16
-5 -5 -5 -5 -6 -4 -3 -4 -4 -4 -4 -4 -5 -4 -5 -6 -6 -6 -6 -7 -7 -8 -8 -8 -8 -9 -10 -11 -12 -13 -13 -13 -13 -14 -14 -15 -15 -15 -16 -16 -16 -16 -16 -16
-6 -6 -5 -7 -8 -7 -4 -4 -4 -5 -6 -4 -5 -5 -6 -6 -7 -6 -8 -8 -8 -9 -9 -10 -10 -11 -11 -13 -13 -13 -13 -14 -14 -14 -15 -15 -16 -16 -16 -16 -16 -17 -17 -17
-6 -7 -6 -6 -7 -6 -5 -5 -6 -7 -6 -5 -6 -7 -7 -7 -8 -9 -9 -9 -9 -9 -10 -11 -11 -12 -13 -13 -13 -13 -14 -14 -14 -14 -15 -16 -16 -17 -17 -17 -17 -17 -17 -17
-5 -6 -7 -8 -8 -8 -6 -7 -7 -7 -7 -7 -7 -8 -8 -9 -9 -9 -9 -10 -10 -11 -11 -12 -12 -13 -13 -13 -13 -14 -14 -14 -15 -15 -15 -16 -17 -17 -17 -17 -17 -17 -17 -18
-7 -6 -6 -6 -6 -6 -7 -7 -7 -7 -8 -8 -8 -9 -9 -10 -9 -10 -10 -11 -11 -12 -13 -13 -14 -14 -14 -14 -14 -14 -14 -15 -15 -15 -16 -17 -18 -18 -17 -17 -18 -17 -18 -18
-7 -6 -7 -7 -7 -7 -8 -8 -8 -9 -9 -9 -9 -10 -10 -10 -10 -10 -11 -12 -13 -13 -13 -14 -14 -14 -14 -14 -15 -15 -15 -15 -16 -16 -16 -17 -17 -18 -18 -18 -18 -18 -18 -18
-7 -7 -7 -8 -8 -8 -9 -9 -9 -10 -10 -10 -10 -10 -11 -11 -11 -11 -11 -12 -13 -13 -14 -14 -14 -15 -15 -15 -15 -15 -16 -16 -16 -16 -17 -17 -18 -18 -18 -18 -18 -19 -19 -18
-7 -7 -8 -8 -8 -9 -9 -10 -11 -11 -11 -10 -11 -11 -11 -11 -11 -12 -12 -12 -13 -13 -14 -14 -14 -15 -15 -15 -15 -16 -16 -17 -17 -17 -17 -18 -18 -18 -18 -18 -18 -19 -19 -19

GFSCGP_700_temp_027.txt.gz
Temp
6 6 7 8 6 5 5 5 6 7 6 5 5 5 6 6 5 6 6 6 6 6 6 6 6 6 5 5 4 5 5 5 5 5 5 5 5 5 4 4 4 3 3 3
5 6 6 6 5 5 5 5 5 6 5 4 4 4 5 5 6 6 6 6 6 6 6 6 6 6 5 5 4 4 4 4 4 4 4 4 4 4 3 3 3 3 2 2
5 5 5 5 5 4 4 4 5 4 4 4 3 4 6 6 6 6 5 5 5 6 6 6 5 5 4 3 3 3 3 3 3 3 3 3 3 3 2 2 2 2 1 0
3 3 4 4 4 4 3 4 3 3 3 2 2 2 4 6 7 7 7 6 6 6 6 5 5 4 3 3 3 3 3 2 2 2 2 2 2 1 1 1 -0 -0 -0 -0
4 3 3 4 5 4 2 3 2 2 2 2 2 1 3 5 7 6 6 6 5 5 5 5 4 4 3 3 2 2 1 1 1 1 0 0 -0 -1 -1 -1 -1 -1 -1 -1
2 2 2 3 4 3 2 2 2 2 2 -2 3 2 2 4 5 5 6 6 5 4 4 4 3 2 1 1 1 1 0 0 -0 -0 -1 -1 -1 -1 -1 -1 -1 -1 -1 -1
2 1 1 2 2 2 2 1 1 -1 -2 -1 2 1 4 4 5 5 5 5 5 5 5 4 3 1 -0 -0 -0 -0 -0 -1 -1 -2 -2 -2 -2 -2 -2 -2 -2 -2 -3 -3
3 2 3 3 3 3 2 2 3 -1 -3 -2 1 1 4 4 4 4 4 4 4 4 4 4 2 1 0 -1 -1 -1 -2 -2 -3 -3 -3 -3 -2 -2 -2 -3 -3 -4 -4 -4
3 3 4 3 3 2 1 1 2 1 -1 -2 2 2 3 3 4 4 3 3 3 3 3 2 2 2 -0 -2 -2 -3 -3 -3 -3 -3 -3 -3 -3 -3 -4 -4 -5 -5 -6 -6
3 2 3 2 2 1 1 2 1 1 -3 -5 -1 1 3 3 2 3 2 2 2 2 2 1 1 -1 -1 -3 -3 -3 -3 -3 -3 -3 -3 -4 -4 -5 -6 -6 -7 -7 -8 -8
2 2 1 1 1 3 1 -0 1 2 1 -3 -5 0 2 2 2 1 1 1 1 1 1 1 -0 -1 -2 -3 -3 -3 -3 -3 -3 -4 -4 -5 -6 -7 -8 -8 -8 -9 -9 -9
2 2 1 2 2 2 2 2 2 1 -1 0 -1 0 1 1 1 0 0 -0 -0 -0 -1 -1 -2 -3 -3 -4 -4 -4 -4 -4 -4 -5 -5 -6 -7 -8 -9 -9 -9 -10 -10 -10
3 0 0 -0 -1 0 1 1 1 1 1 1 -1 -0 0 -0 -0 -0 -0 -1 -1 -1 -2 -2 -2 -3 -3 -3 -4 -4 -4 -5 -6 -6 -7 -8 -9 -9 -10 -10 -11 -11 -11 -12
1 0 1 1 2 2 -0 0 0 0 -0 -1 -1 0 -0 -0 -0 -1 -2 -2 -2 -3 -3 -3 -4 -4 -4 -4 -5 -6 -7 -7 -7 -8 -9 -9 -10 -11 -11 -11 -12 -12 -13 -13
0 -1 -0 0 1 1 1 1 0 -0 -0 -1 -0 -1 -0 -0 -1 -1 -2 -2 -3 -3 -4 -4 -5 -5 -5 -6 -7 -7 -7 -8 -8 -9 -10 -11 -11 -12 -12 -12 -13 -13 -13 -13
-1 -1 -1 -1 -1 -1 -1 -0 -1 -2 -2 -1 -1 -1 -1 -1 -2 -2 -3 -3 -4 -4 -4 -5 -5 -6 -6 -7 -7 -8 -8 -8 -9 -10 -11 -12 -12 -13 -13 -13 -14 -14 -14 -14
-2 -2 -2 -2 -2 -2 -3 -1 -2 -2 -2 -2 -2 -0 -2 -2 -3 -3 -4 -4 -4 -4 -4 -5 -6 -6 -7 -8 -8 -8 -9 -10 -10 -11 -12 -12 -13 -13 -14 -14 -14 -15 -15 -15
-2 -2 -2 -3 -4 -5 -1 -1 -3 -2 -1 -2 -2 -2 -2 -3 -4 -4 -4 -4 -4 -5 -5 -6 -7 -7 -8 -8 -8 -9 -10 -11 -12 -12 -13 -13 -13 -14 -14 -15 -15 -15 -15 -15
-2 -2 -4 -4 -5 -2 -2 -3 -2 -2 -2 -3 -3 -3 -3 -4 -4 -5 -5 -5 -6 -6 -6 -7 -8 -8 -8 -8 -9 -10 -11 -12 -13 -13 -13 -14 -14 -14 -15 -15 -15 -16 -16 -16
-4 -4 -4 -6 -6 -6 -2 -3 -3 -4 -4 -4 -4 -4 -5 -5 -5 -5 -6 -6 -7 -7 -8 -8 -8 -8 -9 -10 -11 -12 -12 -13 -13 -13 -14 -14 -14 -14 -15 -15 -16 -16 -17 -17
-5 -5 -5 -5 -6 -5 -4 -4 -5 -6 -4 -4 -5 -5 -6 -6 -6 -7 -7 -8 -8 -8 -9 -9 -9 -10 -11 -12 -12 -13 -13 -13 -14 -14 -14 -14 -15 -15 -15 -16 -16 -17 -17 -17
-4 -5 -6 -6 -6 -6 -4 -5 -5 -5 -6 -5 -5 -6 -6 -7 -7 -7 -8 -8 -9 -9 -9 -10 -11 -11 -12 -13 -13 -13 -13 -14 -14 -14 -14 -15 -15 -15 -16 -16 -17 -17 -18 -17
-6 -5 -5 -5 -4 -4 -5 -6 -6 -6 -6 -6 -7 -7 -7 -8 -8 -9 -9 -9 -9 -10 -11 -11 -12 -12 -13 -13 -13 -14 -14 -14 -14 -15 -15 -15 -16 -16 -16 -16 -17 -17 -18 -18
-5 -5 -5 -6 -6 -6 -7 -7 -7 -7 -8 -8 -8 -8 -8 -8 -9 -10 -10 -10 -10 -10 -11 -12 -12 -13 -13 -14 -14 -14 -15 -15 -15 -15 -15 -16 -16 -17 -17 -17 -17 -17 -18 -18
-6 -6 -6 -7 -7 -7 -7 -8 -8 -9 -9 -9 -9 -9 -9 -10 -10 -10 -10 -10 -11 -11 -12 -12 -13 -13 -13 -14 -14 -15 -15 -15 -15 -15 -16 -16 -17 -17 -17 -17 -18 -18 -19 -19
-5 -6 -7 -8 -8 -8 -8 -9 -9 -10 -9 -10 -10 -10 -10 -10 -11 -10 -11 -11 -11 -11 -12 -13 -13 -13 -14 -14 -15 -15 -15 -15 -16 -16 -16 -16 -17 -17 -17 -18 -18 -18 -19 -19

GFSCGP_700_temp_030.txt.gz
Temp
6 6 7 8 7 6 6 6 6 6 6 5 5 6 6 5 5 5 5 5 5 5 5 5 5 6 6 6 6 6 5 5 5 5 5 5 5 5 4 4 4 3 3 3
6 6 7 6 6 6 6 5 6 6 5 5 5 5 6 5 6 6 6 6 5 5 5 5 5 6 6 5 5 4 4 4 4 4 4 4 4 4 4 3 3 2 2 2
6 6 6 6 5 5 5 5 5 5 5 4 4 4 6 6 6 7 6 6 6 5 5 5 6 6 5 5 5 5 4 4 3 3 3 3 3 2 2 2 2 1 1 0
4 5 5 5 5 4 4 5 4 4 3 3 3 6 5 6 7 8 8 7 7 6 6 5 5 5 5 4 4 3 3 3 2 2 2 2 1 1 1 1 0 -0 -1 -1
5 5 5 5 5 4 3 3 3 2 2 2 2 2 4 7 7 7 7 7 7 6 6 5 5 5 4 4 3 2 2 2 2 2 1 1 1 0 -0 -1 -1 -1 -1 -1
3 4 4 3 3 3 3 2 2 1 1 1 2 2 4 6 8 7 7 7 7 6 6 5 5 4 4 3 3 2 2 1 1 1 0 -0 -1 -1 -2 -2 -2 -2 -1 -1
3 4 4 3 2 2 2 1 2 2 1 3 3 0 4 5 7 7 7 6 6 6 5 5 4 4 3 2 2 1 1 0 -0 -1 -1 -1 -2 -2 -2 -2 -2 -2 -2 -2
4 3 5 4 3 2 2 1 3 2 2 4 0 1 4 5 5 5 6 6 6 5 5 4 4 3 2 2 2 1 -0 -1 -1 -1 -2 -2 -2 -2 -2 -2 -2 -3 -3 -3
4 3 4 4 3 1 0 -0 2 1 0 -0 3 3 4 5 5 5 5 5 5 4 4 3 3 3 2 2 1 -0 -1 -2 -2 -3 -3 -3 -3 -3 -3 -3 -3 -4 -4 -5
4 3 3 3 2 0 1 2 -0 0 1 1 2 1 5 4 4 4 4 4 3 3 3 3 2 2 1 1 0 -1 -2 -3 -3 -3 -3 -3 -3 -3 -4 -4 -5 -6 -6 -7
3 2 2 2 1 2 1 0 1 1 2 2 4 4 4 3 4 3 3 3 2 2 1 1 1 0 0 -0 -1 -2 -3 -3 -3 -3 -3 -3 -4 -4 -5 -6 -6 -7 -8 -9
4 1 1 2 2 2 1 1 2 2 -0 1 1 3 3 3 3 2 2 1 1 0 -0 -0 -0 -0 -1 -1 -2 -3 -3 -3 -3 -3 -4 -4 -5 -6 -7 -7 -8 -9 -9 -10
3 -1 -0 1 -0 0 0 1 2 2 2 2 1 2 3 2 2 1 1 0 -1 -1 -1 -1 -1 -2 -2 -2 -3 -3 -4 -4 -4 -4 -5 -6 -7 -7 -8 -9 -10 -10 -11 -11
2 1 1 2 3 2 1 2 1 1 1 1 1 2 2 1 1 1 0 -0 -1 -1 -2 -2 -2 -3 -3 -3 -4 -4 -4 -4 -5 -6 -7 -7 -7 -8 -9 -10 -11 -11 -12 -12
0 -1 0 1 2 2 2 3 2 1 2 1 2 1 1 1 1 1 -0 -1 -1 -2 -2 -3 -3 -4 -4 -4 -5 -5 -6 -6 -7 -7 -7 -8 -9 -10 -11 -11 -12 -12 -13 -13
-1 -1 -1 -0 -0 0 0 1 1 2 1 1 0 1 0 1 -0 0 -0 -1 -2 -2 -3 -4 -4 -5 -5 -5 -6 -7 -7 -7 -8 -8 -8 -9 -10 -11 -12 -12 -13 -13 -14 -14
-1 -2 -2 -2 -2 -1 -3 0 0 1 1 1 -0 3 1 1 0 -0 -1 -2 -3 -3 -4 -4 -5 -5 -5 -6 -7 -7 -8 -8 -8 -8 -9 -10 -11 -12 -12 -13 -13 -14 -14 -15
-1 -2 -2 -1 -2 -3 -0 -1 -1 -0 0 0 0 1 0 -0 -1 -1 -2 -2 -3 -4 -5 -5 -5 -5 -6 -6 -7 -8 -8 -8 -9 -9 -10 -12 -12 -13 -13 -14 -14 -14 -15 -15
-2 -2 -2 -3 -4 -2 -1 -1 -1 -0 1 0 -0 -1 -1 -2 -2 -2 -3 -3 -4 -4 -5 -5 -5 -6 -7 -7 -8 -8 -8 -9 -10 -11 -12 -13 -13 -13 -14 -14 -14 -14 -15 -15
-2 -3 -3 -5 -4 -3 -1 -1 -1 -2 -2 -1 -1 -2 -2 -3 -3 -3 -4 -4 -5 -5 -6 -6 -7 -7 -7 -8 -8 -9 -9 -10 -11 -12 -13 -13 -13 -13 -14 -14 -14 -15 -15 -15
-4 -4 -4 -4 -4 -4 -3 -3 -4 -4 -3 -3 -3 -3 -4 -4 -4 -5 -5 -5 -5 -6 -7 -7 -7 -8 -9 -9 -9 -10 -11 -12 -13 -13 -13 -13 -14 -14 -14 -14 -15 -15 -15 -16
-3 -4 -5 -5 -5 -4 -3 -4 -4 -5 -6 -5 -5 -5 -5 -5 -5 -6 -6 -6 -7 -7 -8 -8 -9 -9 -9 -10 -10 -11 -12 -13 -13 -13 -14 -14 -14 -14 -14 -15 -15 -16 -16 -16
-5 -4 -4 -5 -4 -5 -6 -6 -7 -7 -7 -6 -6 -6 -6 -7 -7 -7 -7 -8 -8 -8 -9 -9 -9 -9 -10 -11 -12 -13 -13 -13 -14 -14 -14 -14 -14 -15 -15 -15 -16 -16 -16 -16
-5 -5 -5 -5 -5 -6 -7 -7 -8 -9 -8 -7 -6 -6 -7 -7 -7 -8 -8 -9 -9 -10 -10 -10 -10 -10 -11 -12 -13 -13 -13 -14 -14 -14 -15 -15 -15 -15 -15 -16 -16 -16 -16 -16
-5 -5 -6 -6 -7 -8 -9 -9 -9 -8 -7 -7 -7 -8 -8 -8 -8 -8 -9 -10 -10 -10 -10 -10 -10 -11 -12 -13 -13 -13 -14 -14 -14 -15 -15 -15 -15 -16 -16 -16 -16 -16 -16 -17
-5 -6 -6 -7 -8 -9 -9 -8 -8 -8 -8 -8 -8 -8 -9 -9 -9 -10 -10 -10 -10 -10 -11 -11 -11 -12 -12 -12 -13 -13 -14 -14 -15 -15 -15 -15 -16 -16 -16 -16 -16 -17 -17 -17

GFSCGP_700_temp_033.txt.gz
Temp
6 6 7 7 6 6 6 6 6 7 6 6 7 6 6 6 6 6 6 7 7 7 6 6 6 6 6 6 6 6 6 6 6 6 6 6 6 5 5 5 4 4 4 4
6 6 7 5 6 6 6 5 6 6 5 5 6 5 6 6 5 7 6 6 7 6 6 6 6 6 6 6 6 6 6 6 5 6 5 5 5 5 4 4 4 3 3 2
6 6 7 6 6 6 6 5 5 6 4 5 5 5 6 8 6 6 7 6 7 6 6 5 5 6 6 6 5 5 5 5 5 4 4 4 4 4 3 3 2 2 2 1
4 5 5 5 5 5 5 5 5 5 3 5 3 6 7 6 6 7 7 7 7 6 6 5 5 5 5 5 5 5 4 4 4 3 3 3 3 3 2 2 1 1 1 0
5 5 5 5 6 4 4 4 4 4 3 2 3 2 6 6 5 8 7 7 7 7 6 6 5 5 5 5 4 4 3 3 3 2 2 2 2 1 1 1 0 -0 -0 -1
4 4 4 4 5 4 3 3 3 2 1 2 3 3 6 6 7 7 8 7 7 7 6 6 5 5 5 4 4 3 3 2 2 2 1 1 1 0 0 0 -0 -1 -1 -1
3 3 3 3 3 3 3 2 4 3 2 3 4 3 5 6 7 7 7 7 6 6 6 6 6 5 4 4 3 3 2 2 1 1 1 0 -0 -1 -1 -1 -1 -2 -2 -2
3 3 4 5 5 3 3 2 4 3 5 6 2 2 4 6 6 7 7 7 6 6 6 6 5 5 4 4 3 2 2 1 1 -0 -1 -1 -1 -1 -2 -2 -2 -2 -2 -2
3 3 4 5 5 3 1 0 2 2 2 1 4 4 4 6 7 7 7 7 7 6 5 5 4 4 3 3 2 2 1 1 0 -0 -1 -1 -2 -2 -2 -3 -3 -3 -3 -3
3 4 4 4 4 2 1 1 -0 0 2 3 6 6 6 6 6 6 6 6 6 5 5 4 4 3 3 2 2 1 1 0 -0 -1 -2 -2 -2 -3 -3 -3 -3 -4 -4 -4
3 3 3 2 2 4 1 -0 1 2 3 4 5 7 6 5 6 6 6 5 5 4 4 4 3 2 2 1 1 1 0 -0 -1 -2 -3 -3 -3 -3 -3 -4 -4 -5 -5 -6
5 2 2 2 2 3 0 1 1 2 1 2 4 5 5 5 5 5 5 4 4 4 3 2 2 1 1 0 -0 -0 -1 -1 -2 -3 -3 -3 -3 -4 -5 -5 -6 -6 -7 -8
5 1 2 1 -0 -1 0 2 1 1 3 3 2 4 5 4 4 4 4 4 4 3 2 1 0 0 -0 -1 -1 -1 -1 -2 -3 -3 -4 -4 -4 -5 -6 -7 -7 -7 -8 -9
4 3 1 2 3 3 1 1 1 0 1 2 2 3 4 4 3 3 4 3 3 2 1 -0 -1 -1 -1 -1 -2 -2 -2 -3 -4 -4 -4 -5 -5 -6 -7 -7 -8 -8 -9 -10
2 1 0 1 2 2 2 2 2 1 3 2 3 3 3 3 3 3 3 2 2 1 0 -0 -1 -1 -2 -2 -3 -3 -3 -4 -5 -5 -5 -6 -7 -8 -8 -8 -9 -10 -11 -11
0 -1 -2 -1 0 0 -0 0 1 2 3 2 2 3 3 2 2 2 2 1 1 0 -0 -1 -2 -2 -3 -3 -3 -4 -5 -5 -5 -6 -7 -7 -8 -8 -8 -9 -10 -11 -12 -12
-1 -2 -2 -2 -1 -1 -2 2 -0 1 1 2 1 4 2 1 1 1 1 1 -1 -0 -1 -2 -3 -3 -3 -4 -4 -5 -6 -6 -7 -7 -7 -8 -8 -9 -9 -10 -11 -12 -13 -13
-1 -1 -2 -1 -1 -2 1 1 1 0 1 -0 1 1 1 1 0 -1 -2 -2 -2 -1 -2 -2 -3 -4 -4 -5 -5 -5 -6 -6 -7 -7 -8 -8 -9 -9 -10 -11 -12 -13 -13 -13
-1 -1 -2 -2 -2 0 2 1 0 -0 2 0 -1 0 0 -0 -2 -2 -2 -2 -2 -2 -2 -3 -3 -5 -5 -5 -5 -6 -6 -7 -8 -8 -9 -9 -10 -10 -11 -12 -13 -13 -14 -14
-1 -2 -2 -3 -2 -1 2 1 0 0 -1 -1 -0 -1 -1 -2 -3 -2 -2 -2 -2 -3 -3 -4 -4 -5 -5 -5 -6 -7 -7 -8 -8 -9 -9 -10 -11 -12 -12 -13 -13 -13 -14 -14
-3 -3 -3 -3 -3 -2 -1 -1 -1 -3 -1 -1 -1 -1 -1 -2 -2 -3 -3 -3 -3 -3 -4 -5 -5 -5 -6 -7 -7 -7 -8 -8 -9 -10 -10 -11 -12 -12 -13 -13 -14 -14 -14 -14
-2 -4 -4 -4 -3 -3 -3 -3 -3 -3 -3 -2 -3 -3 -4 -4 -4 -3 -3 -3 -4 -4 -5 -5 -6 -7 -7 -7 -8 -8 -9 -9 -10 -11 -11 -12 -13 -13 -14 -14 -14 -14 -14 -15
-4 -3 -3 -3 -3 -3 -4 -4 -4 -4 -5 -5 -5 -6 -5 -5 -4 -5 -5 -5 -6 -6 -7 -7 -7 -8 -8 -8 -9 -9 -10 -10 -11 -12 -12 -13 -13 -14 -14 -14 -14 -15 -15 -15
-4 -4 -4 -4 -5 -5 -5 -5 -5 -5 -5 -6 -6 -6 -6 -6 -6 -6 -7 -7 -7 -7 -8 -8 -8 -9 -9 -9 -10 -10 -11 -11 -12 -12 -13 -13 -14 -14 -14 -14 -15 -15 -15 -15
-5 -5 -5 -5 -6 -6 -6 -7 -7 -7 -7 -6 -6 -7 -6 -6 -7 -7 -7 -7 -8 -8 -9 -9 -9 -10 -10 -10 -10 -11 -11 -12 -12 -12 -13 -13 -14 -14 -15 -15 -15 -15 -15 -16
-5 -5 -6 -6 -6 -7 -7 -8 -8 -7 -7 -7 -7 -7 -7 -8 -8 -8 -8 -9 -9 -9 -10 -10 -10 -10 -10 -11 -11 -11 -12 -12 -12 -13 -13 -14 -14 -15 -15 -16 -15 -16 -16 -16

GFSCGP_700_temp_036.txt.gz
Temp
6 6 7 7 7 7 7 7 7 7 7 7 7 7 7 6 7 7 7 8 8 8 7 7 7 6 6 6 6 6 7 7 6 6 6 6 6 6 6 6 5 5 4 4
5 6 7 6 5 5 5 5 7 7 6 6 6 7 7 7 7 8 7 7 7 7 7 7 6 6 6 6 6 6 6 6 6 6 5 5 5 5 5 5 4 4 3 3
6 6 7 6 6 5 6 6 6 6 6 5 6 6 7 8 8 7 7 7 6 7 7 7 6 6 6 5 5 6 6 6 6 5 5 5 5 4 4 4 3 3 2 2
4 6 5 5 5 6 5 5 5 5 5 4 4 3 5 7 8 8 7 7 6 7 8 6 6 6 5 5 5 6 6 6 5 5 4 4 3 3 3 3 3 2 2 1
5 5 6 6 6 5 5 5 5 4 4 3 3 3 4 6 8 8 8 7 7 8 8 7 6 6 5 5 5 5 5 5 4 4 3 3 2 2 2 2 1 1 1 1
4 4 4 5 5 5 4 4 4 4 3 0 3 3 4 6 7 7 7 7 7 7 7 7 7 6 5 5 5 5 4 4 4 3 2 2 1 1 1 1 1 0 -0 -1
3 3 3 4 4 4 3 3 3 0 -1 -1 5 3 4 7 7 7 7 8 8 8 7 7 7 6 6 5 5 4 4 4 3 3 2 2 1 1 1 -0 -0 -1 -1 -2
3 3 4 4 5 4 3 3 3 1 -0 0 3 3 4 6 7 8 8 7 7 7 7 7 6 6 5 5 5 4 4 3 3 2 2 1 1 0 -1 -1 -1 -2 -2 -2
4 3 4 4 4 2 2 1 3 3 2 0 3 4 5 5 7 7 8 7 8 8 7 6 6 6 5 4 4 4 3 3 3 2 1 1 -0 -1 -1 -2 -2 -3 -3 -3
4 4 3 4 4 2 2 3 1 1 -2 -2 3 5 5 6 7 7 8 8 8 7 7 6 6 5 5 4 3 3 3 2 2 1 1 -0 -1 -1 -2 -2 -3 -3 -3 -3
2 3 1 2 2 4 2 0 2 2 2 -1 -1 5 7 7 6 7 7 7 7 7 6 6 5 4 3 3 3 3 2 2 1 1 -0 -1 -1 -2 -2 -3 -3 -4 -4 -4
3 2 2 3 3 3 3 3 2 3 2 2 3 4 5 6 6 7 7 7 7 6 6 5 4 4 4 3 2 2 2 1 0 -0 -1 -1 -2 -2 -3 -4 -4 -4 -5 -5
3 1 0 2 1 1 2 3 2 3 3 3 1 3 5 5 5 5 6 7 6 6 5 5 4 4 3 2 2 1 1 0 -0 -1 -1 -2 -3 -3 -4 -4 -4 -5 -6 -7
3 3 2 2 4 3 1 2 3 2 1 1 2 3 4 4 4 4 5 5 6 5 5 4 3 3 2 2 1 0 -0 -1 -1 -1 -2 -3 -3 -4 -4 -5 -6 -6 -7 -8
1 0 0 1 2 3 3 3 3 2 2 1 4 3 4 4 4 4 4 4 4 5 4 3 3 2 1 1 -0 -1 -1 -2 -2 -2 -3 -3 -4 -5 -5 -6 -7 -8 -8 -8
-0 -1 -0 0 1 1 2 2 2 1 2 2 2 2 2 3 3 3 3 3 3 3 4 3 2 1 0 -0 -1 -1 -2 -2 -3 -3 -4 -5 -6 -6 -6 -7 -8 -8 -9 -9
-1 -2 -2 -1 -0 -0 -2 2 1 1 0 1 1 5 3 3 3 2 3 2 2 3 3 2 1 -0 -1 -1 -2 -2 -3 -3 -4 -4 -5 -6 -6 -7 -7 -8 -8 -9 -9 -10
-1 -1 -2 -1 -1 -2 3 1 2 1 2 1 1 3 1 1 1 2 2 2 1 1 1 1 -0 -3 -3 -3 -3 -3 -4 -4 -4 -5 -6 -6 -7 -7 -8 -8 -9 -9 -10 -11
-1 -1 -2 -2 -1 -0 1 1 0 -0 4 3 3 3 1 0 -0 1 1 1 -0 -1 -1 -1 -2 -3 -3 -3 -3 -4 -4 -5 -5 -6 -7 -7 -8 -8 -9 -9 -9 -10 -11 -12
-1 -1 -2 -2 -2 -1 2 2 1 0 1 2 1 2 2 1 -1 0 -0 -0 -1 -1 -2 -2 -4 -3 -3 -3 -4 -5 -5 -6 -6 -6 -7 -8 -8 -9 -9 -10 -11 -12 -12 -13
-2 -2 -2 -3 -2 -1 1 0 0 -1 1 1 1 2 1 1 0 -1 -1 -2 -2 -3 -4 -4 -3 -3 -3 -4 -5 -5 -6 -6 -7 -7 -8 -9 -9 -9 -10 -11 -11 -12 -13 -13
-1 -3 -3 -3 -2 -2 -1 -1 -2 -1 0 0 -0 0 -0 -1 -2 -3 -3 -3 -4 -4 -5 -4 -4 -4 -4 -5 -5 -6 -7 -7 -8 -8 -9 -9 -9 -10 -11 -11 -12 -13 -13 -14
-3 -2 -2 -3 -2 -1 -1 -1 -3 -2 -2 -2 -2 -2 -3 -4 -4 -4 -4 -4 -5 -4 -4 -4 -4 -5 -6 -6 -7 -7 -8 -8 -9 -9 -9 -10 -10 -11 -11 -12 -13 -14 -14 -14
-4 -3 -3 -3 -4 -3 -3 -3 -3 -3 -4 -4 -4 -4 -4 -5 -5 -6 -5 -4 -4 -5 -5 -6 -6 -6 -7 -7 -8 -8 -9 -9 -9 -10 -10 -11 -11 -12 -12 -13 -14 -14 -14 -15
-4 -4 -4 -5 -5 -5 -5 -5 -5 -5 -5 -5 -5 -5 -6 -5 -5 -5 -6 -6 -6 -6 -7 -7 -7 -7 -8 -8 -9 -9 -10 -10 -10 -11 -11 -11 -12 -12 -13 -13 -14 -14 -15 -15
-5 -5 -5 -5 -6 -6 -6 -6 -6 -5 -6 -7 -7 -6 -6 -6 -7 -7 -7 -7 -8 -8 -8 -8 -9 -9 -10 -10 -10 -10 -10 -11 -11 -11 -11 -12 -12 -13 -13 -14 -14 -14 -15 -16

GFSCGP_700_temp_042.txt.gz
Temp
7 7 8 8 7 6 6 6 6 7 6 6 7 7 8 7 7 8 8 8 8 8 8 8 8 8 8 8 7 7 7 7 7 6 7 7 7 7 7 6 6 5 5 5
7 7 8 7 6 6 6 6 6 7 6 6 6 6 7 7 8 8 8 8 9 8 8 8 8 8 7 7 7 7 6 6 7 6 6 7 6 6 6 6 6 5 4 4
7 7 7 7 7 6 7 6 7 6 6 5 6 6 7 8 8 8 9 9 9 9 9 9 7 7 7 7 6 6 6 6 6 6 6 6 6 6 6 5 5 5 4 3
5 6 6 7 6 6 6 7 6 6 5 4 5 4 6 7 8 8 10 9 10 9 9 8 8 7 6 6 6 6 6 6 6 6 6 6 6 5 5 5 4 4 3 3
7 7 7 7 7 6 6 6 5 5 5 4 4 3 5 6 8 10 10 10 10 10 9 8 7 7 6 5 5 5 5 5 5 5 6 6 5 5 5 4 4 3 3 2
5 5 5 6 6 5 5 4 4 4 4 1 4 3 4 6 9 9 10 10 10 10 10 8 7 6 6 6 5 5 5 5 5 5 5 5 5 4 4 4 3 3 2 1
3 4 4 4 4 4 4 3 3 0 -1 0 5 4 5 7 8 8 9 9 9 9 9 9 8 7 6 6 5 5 4 4 5 5 5 5 4 4 4 3 2 2 1 1
4 3 5 5 5 4 4 4 3 -1 -2 -1 3 2 6 7 8 9 9 9 9 9 8 8 8 7 6 5 5 5 5 4 4 4 4 4 4 3 3 3 2 1 0 -0
3 3 4 5 4 3 3 2 3 4 2 -0 4 5 5 6 7 8 8 8 9 8 7 7 7 7 6 5 6 6 5 5 4 4 4 4 3 3 3 2 1 0 -0 -1
3 3 4 4 3 2 2 3 2 2 -3 -4 2 3 5 7 7 8 8 8 8 7 7 7 7 6 6 6 6 6 5 4 4 4 4 3 3 2 2 1 -0 -1 -1 -2
3 3 2 3 3 4 3 1 2 2 2 -2 -3 4 7 7 7 7 7 7 8 8 7 7 6 6 6 6 6 5 5 5 5 4 4 3 2 2 1 -0 -1 -1 -2 -3
5 2 2 2 3 3 3 3 2 2 1 2 3 4 6 6 7 6 6 7 7 7 7 7 6 6 6 6 5 5 5 5 4 4 3 2 2 1 0 -0 -1 -2 -3 -4
3 0 1 1 0 1 1 1 2 2 3 4 2 5 5 6 6 6 6 6 6 5 6 6 6 6 6 5 5 5 5 4 4 3 2 2 1 1 -0 -1 -2 -3 -3 -4
1 0 1 2 3 2 1 2 2 1 2 3 4 5 5 5 6 6 6 5 5 5 5 5 6 6 5 5 5 5 4 4 3 2 2 1 0 -0 -1 -2 -3 -4 -4 -5
-0 -1 -0 1 1 2 3 4 3 2 4 1 6 4 6 5 5 6 5 4 4 4 4 4 5 5 5 4 4 4 4 3 3 2 1 1 -0 -1 -2 -2 -3 -4 -5 -5
-1 -1 -1 -0 1 1 2 2 2 3 4 3 4 4 3 4 4 5 5 4 4 4 4 4 4 4 4 4 4 4 4 3 2 1 1 -0 -1 -2 -3 -2 -4 -5 -5 -6
-1 -1 -2 -1 -0 -1 -1 2 1 2 2 2 2 4 4 4 4 5 5 4 3 2 2 2 2 3 3 3 3 3 3 2 1 0 -0 -1 -2 -3 -3 -4 -5 -6 -7 -7
-1 -1 -2 -1 -2 -2 2 2 2 1 2 2 2 3 3 4 4 4 4 3 4 4 3 2 1 2 2 2 2 2 2 1 -0 -1 -1 -2 -4 -5 -6 -6 -6 -7 -8 -8
-2 -2 -2 -2 -2 0 1 2 1 1 3 3 2 3 4 3 3 4 3 4 4 4 3 2 1 1 1 2 2 1 1 -0 -1 -1 -2 -4 -4 -5 -6 -5 -6 -7 -8 -8
-2 -2 -2 -3 -2 -1 4 2 1 1 0 4 2 4 4 2 2 5 4 3 4 4 3 2 2 1 1 1 1 0 -1 -2 -2 -3 -4 -4 -5 -5 -5 -6 -6 -8 -8 -9
-2 -2 -2 -2 -2 -1 2 1 1 -1 2 2 2 3 3 3 3 3 2 2 2 3 2 1 1 0 0 1 -0 -1 -2 -3 -4 -4 -4 -5 -5 -5 -6 -6 -7 -8 -9 -9
-2 -2 -2 -3 -3 -2 0 -1 -1 0 1 2 1 1 1 1 1 1 1 1 1 1 2 0 -0 -1 -1 -1 -2 -3 -4 -4 -3 -4 -5 -5 -6 -6 -7 -9 -9 -9 -9 -10
-2 -2 -2 -2 -2 -1 -1 -0 -1 -1 -1 -0 -0 -0 -0 -0 -0 -0 -0 -1 -0 -0 -1 -1 -2 -2 -3 -3 -4 -4 -4 -5 -6 -6 -7 -6 -7 -8 -8 -9 -9 -9 -10 -10
-2 -2 -2 -2 -2 -2 -1 -2 -2 -2 -2 -2 -2 -2 -1 -2 -2 -2 -3 -3 -3 -3 -4 -4 -4 -4 -4 -4 -5 -6 -7 -7 -7 -7 -7 -7 -8 -8 -9 -9 -10 -10 -11 -11
-2 -2 -2 -3 -2 -2 -2 -2 -2 -3 -3 -3 -3 -3 -4 -4 -4 -4 -4 -4 -4 -4 -5 -6 -7 -7 -7 -7 -7 -6 -6 -7 -7 -7 -8 -8 -9 -9 -10 -10 -11 -11 -11 -12
-2 -2 -3 -3 -3 -3 -3 -3 -4 -4 -4 -5 -5 -5 -5 -5 -5 -5 -6 -7 -7 -7 -7 -7 -7 -7 -7 -7 -7 -7 -7 -8 -8 -9 -9 -10 -10 -10 -11 -11 -11 -12 -12 -12

GFSCGP_700_temp_045.txt.gz
Temp
7 7 8 9 7 7 6 6 6 7 7 6 7 7 8 7 7 8 8 8 9 9 8 8 8 8 8 8 8 7 7 7 7 7 7 7 7 7 7 6 6 6 6 5
6 7 8 7 7 6 6 6 7 7 7 6 6 7 7 7 8 9 9 8 9 9 9 8 8 8 8 8 7 7 7 6 6 6 6 6 6 6 6 6 6 6 5 5
6 7 7 7 7 6 7 7 7 7 6 6 6 6 8 9 8 9 9 9 9 9 9 9 9 8 8 7 7 7 6 6 6 6 6 6 6 6 6 6 6 5 5 4
5 6 7 7 7 6 6 7 6 6 5 4 5 3 6 8 9 9 9 9 9 9 9 9 9 9 8 7 6 6 6 6 6 6 6 6 5 5 6 5 5 5 4 4
6 6 7 7 7 7 6 6 5 5 5 4 4 3 5 6 8 10 10 10 10 9 10 10 10 9 7 7 6 5 5 5 5 5 5 5 5 5 5 5 4 4 4 4
5 5 5 5 6 6 5 4 4 4 3 1 4 4 5 6 10 10 10 10 9 9 9 10 9 9 8 7 6 5 5 5 5 5 5 5 5 5 5 4 4 4 4 3
4 5 5 5 4 4 4 3 2 0 -2 0 4 3 6 7 8 9 10 10 9 9 9 9 9 8 8 7 6 6 5 5 4 4 4 5 5 4 4 4 4 3 3 2
4 3 5 5 5 4 4 4 4 -1 -2 -1 3 2 6 7 8 8 9 9 9 9 8 8 8 7 7 7 6 5 5 4 4 4 4 4 4 4 4 4 3 3 2 1
3 4 4 6 5 4 3 3 3 4 2 -0 4 5 5 6 8 8 9 8 9 8 8 8 8 7 6 6 6 5 4 4 4 4 3 3 4 4 4 3 3 2 2 1
3 3 4 4 4 3 3 3 2 2 -2 -4 2 3 5 7 7 8 8 8 8 8 8 7 7 7 7 6 6 5 4 4 4 3 3 3 3 3 3 3 2 2 2 1
2 2 2 2 3 4 3 2 2 2 2 -3 -4 5 7 7 8 7 7 8 8 7 7 7 7 6 7 6 6 5 5 5 5 4 4 3 3 3 3 2 2 2 1 -0
4 2 2 2 3 3 3 4 2 2 1 2 2 4 6 6 7 7 7 7 7 6 6 6 6 6 6 6 6 6 5 5 5 4 4 3 3 3 2 2 2 1 0 -1
3 -0 1 1 1 1 1 2 3 2 2 3 -0 4 5 5 5 5 6 6 6 6 5 6 6 5 5 5 6 6 5 5 5 4 4 3 3 3 3 2 1 -0 -1 -1
2 0 1 2 2 2 2 2 2 1 1 2 2 5 5 4 5 5 6 6 6 5 5 5 5 5 5 4 4 5 5 5 5 4 4 3 3 3 2 1 0 -0 -2 -2
-1 -1 -1 1 1 0 1 1 2 1 3 1 5 2 5 4 4 4 4 4 5 5 5 4 4 4 4 4 4 4 4 5 4 4 4 3 3 2 2 1 -0 -1 -2 -3
-2 -2 -1 -0 1 1 -0 -0 1 1 2 2 3 3 3 3 3 3 4 4 5 4 4 3 3 3 3 3 3 3 3 3 4 4 3 3 2 2 1 -0 -1 -2 -3 -4
-2 -2 -2 -2 0 -2 -2 2 2 -0 1 1 1 6 4 4 5 5 4 4 3 3 4 3 3 2 2 2 2 3 3 2 3 3 3 2 1 1 0 -1 -2 -3 -5 -6
-2 -2 -2 -2 -2 -2 1 3 1 0 2 1 2 5 4 3 4 4 3 3 5 4 4 3 3 3 2 2 2 2 2 2 2 2 2 1 1 0 -1 -2 -4 -6 -7 -7
-2 -2 -2 -2 -2 -1 0 4 0 0 2 3 4 4 4 4 3 4 4 4 4 3 4 3 3 3 3 3 3 2 2 2 2 2 1 1 -0 -1 -3 -5 -6 -8 -7 -8
-3 -2 -2 -2 -2 -1 3 3 1 1 -0 6 2 4 5 3 2 5 4 4 4 4 3 3 3 3 3 3 3 2 1 1 1 1 1 -1 -1 -4 -5 -6 -8 -6 -7 -8
-3 -3 -2 -2 -2 -2 2 1 -0 -1 3 3 2 3 4 3 3 3 3 3 2 3 3 2 2 2 2 2 1 1 1 1 1 0 -1 -2 -3 -5 -6 -6 -5 -6 -6 -8
-2 -2 -2 -2 -2 -2 1 -0 -1 0 1 2 2 1 1 1 1 1 1 1 1 1 1 1 1 1 1 1 0 -0 -0 0 -0 -1 -2 -3 -4 -4 -5 -5 -6 -6 -7 -9
-4 -3 -2 -2 -2 -2 -1 -0 -1 0 0 0 1 1 1 1 -0 -0 -0 -0 -0 -0 -0 -0 -0 -0 -0 -1 -1 -1 -1 -2 -3 -4 -4 -4 -5 -6 -6 -7 -7 -8 -8 -9
-3 -2 -3 -3 -2 -1 -1 -1 -0 -0 -1 -1 -1 -1 -1 -1 -2 -2 -2 -2 -1 -2 -2 -2 -2 -2 -2 -2 -3 -4 -4 -4 -4 -5 -5 -6 -7 -8 -9 -9 -8 -9 -9 -10
-3 -3 -2 -3 -1 -0 -0 -1 -2 -2 -2 -2 -2 -3 -3 -3 -3 -3 -3 -3 -4 -4 -4 -4 -4 -4 -4 -4 -4 -5 -5 -7 -8 -8 -8 -8 -8 -8 -9 -9 -10 -10 -11 -11
-3 -3 -3 -2 -2 -2 -1 -2 -3 -3 -3 -3 -3 -4 -4 -5 -4 -4 -5 -5 -5 -5 -5 -6 -6 -7 -7 -7 -7 -7 -7 -7 -7 -8 -8 -9 -9 -9 -9 -10 -10 -11 -11 -11

GFSCGP_700_temp_048.txt.gz
Temp
7 6 8 8 7 6 6 7 7 8 7 7 8 9 8 8 8 9 9 8 9 9 9 8 8 8 8 8 8 8 7 7 7 7 7 7 7 6 6 6 6 6 6 6
6 7 8 7 7 7 6 6 7 8 7 6 7 8 9 9 9 9 9 9 9 9 9 9 8 8 8 8 8 8 7 7 7 6 6 6 6 6 6 6 6 6 6 6
6 7 7 7 7 6 7 7 7 6 6 5 6 7 9 11 10 10 10 10 10 10 10 9 9 8 8 8 8 7 7 7 7 6 6 6 6 6 6 6 6 6 6 5
5 6 6 6 6 6 7 7 6 6 5 4 4 3 8 10 10 10 11 11 11 10 9 9 9 8 8 8 7 7 7 7 6 6 6 6 6 6 5 5 5 5 5 5
6 6 6 6 7 6 6 5 5 5 5 4 3 3 6 8 10 11 11 11 11 10 9 9 9 9 8 8 8 7 6 6 6 6 5 5 5 5 5 5 5 4 4 4
5 5 5 5 5 5 5 4 4 4 3 0 4 4 8 8 10 10 11 10 9 9 9 9 9 9 9 8 8 8 7 6 5 5 5 5 5 5 5 5 5 5 4 4
4 4 4 4 4 4 4 3 3 0 -3 -0 4 3 8 8 8 9 10 10 9 9 9 9 8 8 8 8 8 7 7 6 5 5 5 4 4 4 4 4 4 4 4 4
4 3 5 5 5 4 4 4 4 -1 -3 -1 1 2 7 8 8 8 10 9 9 8 8 8 8 8 8 8 7 7 7 6 5 5 4 4 4 4 4 4 4 4 3 3
3 3 4 5 5 3 3 2 3 4 3 0 4 6 6 8 8 9 10 10 10 9 8 8 8 7 7 7 7 7 6 6 5 4 4 4 3 3 3 3 3 3 3 2
2 2 4 4 3 3 2 3 2 2 -2 -4 3 3 5 7 8 8 9 9 8 8 8 7 7 7 7 7 7 7 7 6 5 4 4 3 3 3 3 3 3 3 2 2
2 1 2 2 3 4 2 1 2 2 3 -3 -4 5 8 7 7 8 8 8 7 7 7 6 6 6 6 6 6 6 6 6 5 4 4 3 3 3 2 2 2 2 2 2
4 1 1 2 2 3 3 4 3 3 0 2 2 4 6 6 6 7 7 8 7 7 6 7 7 6 5 5 6 6 6 5 5 4 4 3 3 3 2 2 2 2 2 1
3 -0 -0 1 1 1 1 2 2 2 3 3 -0 4 5 5 6 6 6 6 6 6 6 6 6 5 5 5 5 5 5 5 4 4 4 4 3 3 2 2 2 1 1 1
1 -0 -1 0 2 2 1 2 2 2 1 2 2 5 5 4 5 6 5 5 5 6 6 6 5 4 4 4 4 4 4 4 4 4 4 4 3 3 2 2 1 1 1 -0
-0 -1 -1 -0 -0 0 2 2 1 1 2 0 4 2 6 4 5 4 4 4 4 4 5 5 4 4 4 3 3 3 3 3 3 4 4 4 3 3 2 2 1 1 0 -1
-1 -2 -2 -1 -1 -1 -0 0 1 1 1 0 1 1 6 5 4 4 3 3 3 4 3 4 3 3 3 2 3 3 2 2 2 3 3 3 3 3 2 2 1 1 -0 -2
-1 -2 -2 -2 0 -1 -2 0 1 1 1 1 -0 5 5 5 4 5 4 4 3 3 3 3 3 3 3 3 3 4 3 2 2 2 2 3 3 2 2 1 1 -0 -1 -2
-2 -2 -2 -2 -2 -2 0 1 1 0 2 2 1 4 6 4 4 4 4 4 4 4 3 3 4 4 4 4 4 3 3 3 2 2 2 2 2 2 1 1 -0 -1 -2 -3
-3 -2 -3 -2 -2 -1 -1 2 2 0 3 3 3 4 5 4 3 5 4 4 4 4 4 4 4 4 3 3 3 3 3 3 3 2 1 1 1 1 0 -1 -1 -2 -4 -4
-3 -4 -3 -3 -2 -1 1 4 1 -0 -0 6 3 4 4 3 2 6 4 4 4 4 3 3 3 3 3 3 2 2 2 2 2 2 1 0 0 0 -2 -3 -4 -5 -5 -6
-3 -4 -3 -3 -2 -2 0 1 1 -2 1 3 2 3 3 3 3 3 3 3 3 3 2 2 2 2 2 2 2 1 1 1 1 1 0 -0 -0 -1 -3 -5 -6 -6 -6 -7
-3 -3 -3 -3 -2 -2 -1 0 -1 0 1 1 1 1 1 1 1 2 2 2 1 1 1 0 0 0 -0 0 0 -0 0 0 0 -0 -0 -0 -0 -1 -5 -6 -7 -7 -7 -7
-4 -3 -3 -3 -3 -2 -2 -2 -2 -2 -2 -1 -0 0 -1 -0 -0 -0 -0 -0 -0 -0 -1 -1 -1 -1 -1 -1 -1 -1 -1 -1 -1 -1 -1 -2 -4 -4 -5 -6 -6 -6 -7 -8
-5 -5 -5 -5 -4 -3 -3 -2 -1 -1 0 0 -1 -0 -1 -1 -1 -1 -1 -1 -2 -2 -2 -2 -3 -3 -3 -3 -3 -3 -3 -3 -4 -4 -5 -5 -6 -7 -7 -7 -8 -8 -9 -10
-5 -4 -4 -4 -2 -1 -1 -2 -1 -1 -1 -1 -1 -1 -1 -2 -2 -2 -2 -3 -3 -4 -4 -4 -4 -5 -5 -5 -5 -5 -5 -5 -5 -6 -6 -6 -7 -8 -10 -11 -11 -11 -11 -11
-5 -5 -5 -4 -3 -3 -1 -2 -3 -2 -2 -2 -2 -2 -3 -3 -3 -4 -4 -4 -5 -5 -5 -5 -5 -6 -6 -7 -6 -6 -7 -7 -7 -8 -8 -8 -9 -9 -9 -9 -10 -10 -10 -10